Time,TemperatureF,DewpointF,PressureIn,WindDirection,WindDirectionDegrees,WindSpeedMPH,WindSpeedGustMPH,Humidity,HourlyPrecipIn,Conditions,Clouds,dailyrainin,SolarRadiationWatts/m^2,SoftwareType,DateUTC
2013-05-05 00:03:00,55.0,38.0,-100.00,East,100,6.0,16.0,52,0.00,,,0.00,0.000000,,2013-05-05 04:03:00,
2013-05-05 00:12:00,55.0,38.0,-100.00,East,100,6.0,16.0,52,0.00,,,0.00,0.000000,,2013-05-05 04:12:00,
2013-05-05 00:33:00,54.0,38.0,-100.00,ESE,115,6.0,15.0,55,0.00,,,0.00,0.000000,,2013-05-05 04:33:00,
2013-05-05 00:43:00,54.0,38.0,-100.00,ESE,115,6.0,15.0,55,0.00,,,0.00,0.000000,,2013-05-05 04:43:00,
2013-05-05 00:53:00,54.0,38.0,-100.00,ESE,115,6.0,15.0,55,0.00,,,0.00,0.000000,,2013-05-05 04:53:00,
2013-05-05 01:02:00,54.0,38.0,-100.00,ESE,115,6.0,15.0,55,0.00,,,0.00,0.000000,,2013-05-05 05:02:00,
2013-05-05 01:12:00,54.0,38.0,-100.00,ESE,115,6.0,15.0,55,0.00,,,0.00,0.000000,,2013-05-05 05:12:00,
2013-05-05 01:42:00,53.0,38.0,-100.00,ESE,107,6.0,15.0,56,0.00,,,0.00,0.000000,,2013-05-05 05:42:00,
2013-05-05 01:52:00,53.0,38.0,-100.00,ESE,107,6.0,15.0,56,0.00,,,0.00,0.000000,,2013-05-05 05:52:00,
2013-05-05 02:02:00,53.0,38.0,-100.00,ESE,107,6.0,15.0,56,0.00,,,0.00,0.000000,,2013-05-05 06:02:00,
2013-05-05 02:12:00,53.0,38.0,-100.00,ESE,107,6.0,15.0,56,0.00,,,0.00,0.000000,,2013-05-05 06:12:00,
2013-05-05 02:42:00,52.0,38.0,-100.00,East,90,8.0,17.0,59,0.00,,,0.00,0.000000,,2013-05-05 06:42:00,
2013-05-05 02:52:00,52.0,38.0,-100.00,East,90,8.0,17.0,59,0.00,,,0.00,0.000000,,2013-05-05 06:52:00,
2013-05-05 03:01:00,52.0,38.0,-100.00,East,90,8.0,17.0,59,0.00,,,0.00,0.000000,,2013-05-05 07:01:00,
2013-05-05 03:11:00,52.0,38.0,-100.00,East,90,8.0,17.0,59,0.00,,,0.00,0.000000,,2013-05-05 07:11:00,
2013-05-05 03:42:00,51.0,34.0,-100.00,East,95,5.0,19.0,53,0.00,,,0.00,0.000000,,2013-05-05 07:42:00,
2013-05-05 03:52:00,51.0,34.0,-100.00,East,95,5.0,19.0,53,0.00,,,0.00,0.000000,,2013-05-05 07:52:00,
2013-05-05 04:02:00,51.0,34.0,-100.00,East,95,5.0,19.0,53,0.00,,,0.00,0.000000,,2013-05-05 08:02:00,
2013-05-05 04:11:00,51.0,34.0,-100.00,East,95,5.0,19.0,53,0.00,,,0.00,0.000000,,2013-05-05 08:11:00,
2013-05-05 04:42:00,50.0,32.0,-100.00,East,93,6.0,17.0,50,0.00,,,0.00,0.000000,,2013-05-05 08:42:00,
2013-05-05 04:53:00,50.0,32.0,-100.00,East,93,6.0,17.0,50,0.00,,,0.00,0.000000,,2013-05-05 08:53:00,
2013-05-05 05:01:00,50.0,32.0,-100.00,East,93,6.0,17.0,50,0.00,,,0.00,0.000000,,2013-05-05 09:01:00,
2013-05-05 05:11:00,50.0,32.0,-100.00,East,93,6.0,17.0,50,0.00,,,0.00,0.000000,,2013-05-05 09:11:00,
2013-05-05 05:42:00,49.0,32.0,-100.00,East,96,6.0,13.0,52,0.00,,,0.00,0.000000,,2013-05-05 09:42:00,
2013-05-05 05:52:00,49.0,32.0,-100.00,East,96,6.0,13.0,52,0.00,,,0.00,0.000000,,2013-05-05 09:52:00,
2013-05-05 06:03:00,49.0,32.0,-100.00,East,96,6.0,13.0,52,0.00,,,0.00,0.000000,,2013-05-05 10:03:00,
2013-05-05 06:12:00,49.0,32.0,-100.00,East,96,6.0,13.0,52,0.00,,,0.00,0.000000,,2013-05-05 10:12:00,
2013-05-05 06:32:00,48.0,32.0,-100.00,ENE,78,6.0,13.0,53,0.00,,,0.00,1.000000,,2013-05-05 10:32:00,
2013-05-05 06:42:00,48.0,32.0,-100.00,ENE,78,6.0,13.0,53,0.00,,,0.00,1.000000,,2013-05-05 10:42:00,
2013-05-05 06:53:00,48.0,32.0,-100.00,ENE,78,6.0,13.0,53,0.00,,,0.00,1.000000,,2013-05-05 10:53:00,
2013-05-05 07:02:00,48.0,32.0,-100.00,ENE,78,6.0,13.0,53,0.00,,,0.00,1.000000,,2013-05-05 11:02:00,
2013-05-05 07:12:00,48.0,32.0,-100.00,ENE,78,6.0,13.0,53,0.00,,,0.00,1.000000,,2013-05-05 11:12:00,
2013-05-05 07:32:00,50.0,31.0,-100.00,ENE,77,10.0,22.0,48,0.00,,,0.00,44.000000,,2013-05-05 11:32:00,
2013-05-05 07:42:00,50.0,31.0,-100.00,ENE,77,10.0,22.0,48,0.00,,,0.00,44.000000,,2013-05-05 11:42:00,
2013-05-05 07:52:00,50.0,31.0,-100.00,ENE,77,10.0,22.0,48,0.00,,,0.00,44.000000,,2013-05-05 11:52:00,
2013-05-05 08:02:00,50.0,31.0,-100.00,ENE,77,10.0,22.0,48,0.00,,,0.00,44.000000,,2013-05-05 12:02:00,
2013-05-05 08:11:00,50.0,31.0,-100.00,ENE,77,10.0,22.0,48,0.00,,,0.00,44.000000,,2013-05-05 12:11:00,
2013-05-05 08:42:00,52.0,30.0,-100.00,ENE,73,13.0,34.0,42,0.00,,,0.00,209.000000,,2013-05-05 12:42:00,
2013-05-05 08:52:00,52.0,30.0,-100.00,ENE,73,13.0,34.0,42,0.00,,,0.00,209.000000,,2013-05-05 12:52:00,
2013-05-05 09:01:00,52.0,30.0,-100.00,ENE,73,13.0,34.0,42,0.00,,,0.00,209.000000,,2013-05-05 13:01:00,
2013-05-05 09:11:00,52.0,30.0,-100.00,ENE,73,13.0,34.0,42,0.00,,,0.00,209.000000,,2013-05-05 13:11:00,
2013-05-05 09:42:00,55.0,26.0,-100.00,ENE,77,9.0,26.0,32,0.00,,,0.00,403.000000,,2013-05-05 13:42:00,
2013-05-05 09:52:00,55.0,26.0,-100.00,ENE,77,9.0,26.0,32,0.00,,,0.00,403.000000,,2013-05-05 13:52:00,
2013-05-05 10:02:00,55.0,26.0,-100.00,ENE,77,9.0,26.0,32,0.00,,,0.00,403.000000,,2013-05-05 14:02:00,
2013-05-05 10:11:00,55.0,26.0,-100.00,ENE,77,9.0,26.0,32,0.00,,,0.00,403.000000,,2013-05-05 14:11:00,
2013-05-05 10:42:00,57.0,22.0,-100.00,ENE,63,11.0,25.0,25,0.00,,,0.00,592.000000,,2013-05-05 14:42:00,
2013-05-05 10:52:00,57.0,22.0,-100.00,ENE,63,11.0,25.0,25,0.00,,,0.00,592.000000,,2013-05-05 14:52:00,
2013-05-05 11:02:00,57.0,22.0,-100.00,ENE,63,11.0,25.0,25,0.00,,,0.00,592.000000,,2013-05-05 15:02:00,
2013-05-05 11:11:00,57.0,22.0,-100.00,ENE,63,11.0,25.0,25,0.00,,,0.00,592.000000,,2013-05-05 15:11:00,
2013-05-05 11:43:00,59.0,22.0,-100.00,ENE,68,13.0,22.0,24,0.00,,,0.00,740.000000,,2013-05-05 15:43:00,
2013-05-05 11:53:00,59.0,22.0,-100.00,ENE,68,13.0,22.0,24,0.00,,,0.00,740.000000,,2013-05-05 15:53:00,
2013-05-05 12:03:00,59.0,22.0,-100.00,ENE,68,13.0,22.0,24,0.00,,,0.00,740.000000,,2013-05-05 16:03:00,
2013-05-05 12:12:00,59.0,22.0,-100.00,ENE,68,13.0,22.0,24,0.00,,,0.00,740.000000,,2013-05-05 16:12:00,
2013-05-05 12:42:00,62.0,22.0,-100.00,East,82,15.0,29.0,21,0.00,,,0.00,863.000000,,2013-05-05 16:42:00,
2013-05-05 12:53:00,62.0,22.0,-100.00,East,82,15.0,29.0,21,0.00,,,0.00,863.000000,,2013-05-05 16:53:00,
2013-05-05 13:02:00,62.0,22.0,-100.00,East,82,15.0,29.0,21,0.00,,,0.00,863.000000,,2013-05-05 17:02:00,
2013-05-05 13:12:00,62.0,22.0,-100.00,East,82,15.0,29.0,21,0.00,,,0.00,863.000000,,2013-05-05 17:12:00,
2013-05-05 13:42:00,64.0,21.0,-100.00,East,97,11.0,28.0,19,0.00,,,0.00,924.000000,,2013-05-05 17:42:00,
2013-05-05 13:52:00,64.0,21.0,-100.00,East,97,11.0,28.0,19,0.00,,,0.00,924.000000,,2013-05-05 17:52:00,
2013-05-05 14:01:00,64.0,21.0,-100.00,East,97,11.0,28.0,19,0.00,,,0.00,924.000000,,2013-05-05 18:01:00,
2013-05-05 14:12:00,64.0,21.0,-100.00,East,97,11.0,28.0,19,0.00,,,0.00,924.000000,,2013-05-05 18:12:00,
2013-05-05 14:42:00,66.0,24.0,-100.00,East,91,12.0,22.0,20,0.00,,,0.00,918.000000,,2013-05-05 18:42:00,
2013-05-05 14:52:00,66.0,24.0,-100.00,East,91,12.0,22.0,20,0.00,,,0.00,918.000000,,2013-05-05 18:52:00,
2013-05-05 15:01:00,66.0,24.0,-100.00,East,91,12.0,22.0,20,0.00,,,0.00,918.000000,,2013-05-05 19:01:00,
2013-05-05 15:12:00,66.0,24.0,-100.00,East,91,12.0,22.0,20,0.00,,,0.00,918.000000,,2013-05-05 19:12:00,
2013-05-05 15:42:00,67.0,22.0,-100.00,East,88,13.0,24.0,18,0.00,,,0.00,859.000000,,2013-05-05 19:42:00,
2013-05-05 15:52:00,67.0,22.0,-100.00,East,88,13.0,24.0,18,0.00,,,0.00,859.000000,,2013-05-05 19:52:00,
2013-05-05 16:02:00,67.0,22.0,-100.00,East,88,13.0,24.0,18,0.00,,,0.00,859.000000,,2013-05-05 20:02:00,
2013-05-05 16:11:00,67.0,22.0,-100.00,East,88,13.0,24.0,18,0.00,,,0.00,859.000000,,2013-05-05 20:11:00,
2013-05-05 16:42:00,67.0,23.0,-100.00,ESE,103,12.0,24.0,19,0.00,,,0.00,593.000000,,2013-05-05 20:42:00,
2013-05-05 16:52:00,67.0,23.0,-100.00,ESE,103,12.0,24.0,19,0.00,,,0.00,593.000000,,2013-05-05 20:52:00,
2013-05-05 17:02:00,67.0,23.0,-100.00,ESE,103,12.0,24.0,19,0.00,,,0.00,593.000000,,2013-05-05 21:02:00,
2013-05-05 17:11:00,67.0,23.0,-100.00,ESE,103,12.0,24.0,19,0.00,,,0.00,593.000000,,2013-05-05 21:11:00,
2013-05-05 17:42:00,65.0,24.0,-100.00,ENE,78,12.0,20.0,21,0.00,,,0.00,492.000000,,2013-05-05 21:42:00,
2013-05-05 17:53:00,65.0,24.0,-100.00,ENE,78,12.0,20.0,21,0.00,,,0.00,492.000000,,2013-05-05 21:53:00,
2013-05-05 18:03:00,65.0,24.0,-100.00,ENE,78,12.0,20.0,21,0.00,,,0.00,492.000000,,2013-05-05 22:03:00,
2013-05-05 18:12:00,65.0,24.0,-100.00,ENE,78,12.0,20.0,21,0.00,,,0.00,492.000000,,2013-05-05 22:12:00,
2013-05-05 18:42:00,65.0,29.0,-100.00,East,83,10.0,19.0,26,0.00,,,0.00,276.000000,,2013-05-05 22:42:00,
2013-05-05 18:52:00,65.0,29.0,-100.00,East,83,10.0,19.0,26,0.00,,,0.00,276.000000,,2013-05-05 22:52:00,
2013-05-05 19:02:00,65.0,29.0,-100.00,East,83,10.0,19.0,26,0.00,,,0.00,276.000000,,2013-05-05 23:02:00,
2013-05-05 19:12:00,65.0,29.0,-100.00,East,83,10.0,19.0,26,0.00,,,0.00,276.000000,,2013-05-05 23:12:00,
2013-05-05 19:32:00,62.0,29.0,-100.00,East,81,11.0,19.0,29,0.00,,,0.00,144.000000,,2013-05-05 23:32:00,
2013-05-05 19:42:00,62.0,29.0,-100.00,East,81,11.0,19.0,29,0.00,,,0.00,144.000000,,2013-05-05 23:42:00,
2013-05-05 19:52:00,62.0,29.0,-100.00,East,81,11.0,19.0,29,0.00,,,0.00,144.000000,,2013-05-05 23:52:00,
2013-05-05 20:01:00,62.0,29.0,-100.00,East,81,11.0,19.0,29,0.00,,,0.00,144.000000,,2013-05-06 00:01:00,
2013-05-05 20:11:00,62.0,29.0,-100.00,East,81,11.0,19.0,29,0.00,,,0.00,144.000000,,2013-05-06 00:11:00,
2013-05-05 20:42:00,58.0,33.0,-100.00,ENE,71,9.0,21.0,38,0.00,,,0.00,39.000000,,2013-05-06 00:42:00,
2013-05-05 20:52:00,58.0,33.0,-100.00,ENE,71,9.0,21.0,38,0.00,,,0.00,39.000000,,2013-05-06 00:52:00,
2013-05-05 21:01:00,58.0,33.0,-100.00,ENE,71,9.0,21.0,38,0.00,,,0.00,39.000000,,2013-05-06 01:01:00,
2013-05-05 21:11:00,58.0,33.0,-100.00,ENE,71,9.0,21.0,38,0.00,,,0.00,39.000000,,2013-05-06 01:11:00,
2013-05-05 21:42:00,55.0,34.0,-100.00,ENE,58,9.0,16.0,45,0.00,,,0.00,0.000000,,2013-05-06 01:42:00,
2013-05-05 21:52:00,55.0,34.0,-100.00,ENE,58,9.0,16.0,45,0.00,,,0.00,0.000000,,2013-05-06 01:52:00,
2013-05-05 22:02:00,55.0,34.0,-100.00,ENE,58,9.0,16.0,45,0.00,,,0.00,0.000000,,2013-05-06 02:02:00,
2013-05-05 22:12:00,55.0,34.0,-100.00,ENE,58,9.0,16.0,45,0.00,,,0.00,0.000000,,2013-05-06 02:12:00,
2013-05-05 22:42:00,53.0,34.0,-100.00,ENE,69,8.0,20.0,49,0.00,,,0.00,0.000000,,2013-05-06 02:42:00,
2013-05-05 22:52:00,53.0,34.0,-100.00,ENE,69,8.0,20.0,49,0.00,,,0.00,0.000000,,2013-05-06 02:52:00,
2013-05-05 23:02:00,53.0,34.0,-100.00,ENE,69,8.0,20.0,49,0.00,,,0.00,0.000000,,2013-05-06 03:02:00,
2013-05-05 23:11:00,53.0,34.0,-100.00,ENE,69,8.0,20.0,49,0.00,,,0.00,0.000000,,2013-05-06 03:11:00,
2013-05-05 23:43:00,52.0,35.0,-100.00,ENE,64,7.0,17.0,52,0.00,,,0.00,0.000000,,2013-05-06 03:43:00,
2013-05-05 23:53:00,52.0,35.0,-100.00,ENE,64,7.0,17.0,52,0.00,,,0.00,0.000000,,2013-05-06 03:53:00,